Location: Ferchesar
(52.6477°N, 12.4298°E)
Time: 08:01:44
(UTC+01:00)

Tiros 1 despin weight - Pass Details

Date: 09 December 2021
Orbit: 592 x 641 km, 48.2° (Epoch: 19 January)

Event Time Altitude Azimuth Distance (km) Brightness Sun altitude
Rises 14:20:52 0° 263° (W) 2,838 ? 8.7°
Reaches altitude 10° 14:23:13 10° 258° (WSW) 1,931 ? 8.5°
Maximum altitude 14:27:27 47° 185° (S) 793 ? 8.2°
Drops below altitude 10° 14:31:40 10° 112° (ESE) 1,921 ? 7.8°
Sets 14:34:00 0° 106° (ESE) 2,822 ? 7.6°
